Flag for Switzerland Weather past 2 weeks in Bellinzona, Ticino, Switzerland

Now
65 °F

Mild.


Feels Like: 65 °F
Forecast: 58 / 72 °F
Wind: 5 mph from East

Location: Locarno-Magadino

Current Time: Sep 2, 2015 at 3:22:50 AM

Latest Report: Sep 2, 2015 at 2:00 AM


Visibility: N/A

Pressure: 29.92 "Hg

Humidity: 81%

Dew point: 59 °F

Location of BellinzonaLocation

Historic Weather in Bellinzona — Graph

°F

Bellinzona temperature yesterday

Maximum temperature yesterday: 75 °F (at 5:00 PM)
Minimum temperature yesterday: 62 °F (at 1:00 AM)
Average temperature yesterday: 69 °F

Past Weeks' High & Low Weather Summary

 TemperatureHumidityPressure
High87 °F (Aug 29, 5:00 PM)98% (Aug 19, 12:00 AM)30.22 "Hg (Aug 19, 12:00 AM)
Low52 °F (Aug 20, 7:00 AM)39% (Aug 20, 3:00 PM)29.87 "Hg (Aug 18, 2:00 AM)
Average69 °F77%30.03 "Hg
* Reported Aug 18 2:00 AM — Sep 2 2:00 AM, Bellinzona, Weather by CustomWeather, © 2015

Note: Actual official high and low records may vary slightly from our data, if they occured in-between our weather recording intervals... More about our weather records

Advertising

Bellinzona weather history for previous 24 hours

 ConditionsComfort  
Time TempWeatherWind HumidityBarometerVisibility
2:00 AM
Wed, Sep 2
65 °FMild.5 mph81%29.92 "HgN/A
1:00 AM66 °FMild.7 mph82%29.92 "HgN/A
12:00 AM66 °FMild.5 mph83%29.93 "HgN/A
10:00 PM
Tue, Sep 1
68 °FMild.7 mph75%29.93 "HgN/A
9:00 PM68 °FMild.6 mph80%29.93 "HgN/A
8:00 PM69 °FMild.1 mph90%29.92 "HgN/A
7:00 PM71 °FMild.2 mph84%29.90 "HgN/A
6:00 PM74 °FMild.3 mph68%29.90 "HgN/A
5:00 PM75 °FMild.3 mph67%29.90 "HgN/A
4:00 PM74 °FMild.6 mph68%29.91 "HgN/A
3:00 PM72 °FMild.3 mph78%29.93 "HgN/A
2:00 PM70 °FMild.3 mph84%29.95 "HgN/A
1:00 PM72 °FMild.2 mph74%29.93 "HgN/A
12:00 PM73 °FMild.No wind62%29.93 "HgN/A
11:00 AM73 °FMild.2 mph67%29.93 "HgN/A
10:00 AM72 °FMild.2 mph73%29.93 "HgN/A
9:00 AM69 °FMild.1 mph82%29.93 "HgN/A
8:00 AM65 °FMild.No wind93%29.96 "HgN/A
7:00 AM64 °FMild.1 mph95%29.95 "HgN/A
6:00 AM62 °FMild.1 mph95%29.96 "HgN/A
4:00 AM64 °FMild.2 mph91%29.98 "HgN/A
3:00 AM64 °FMild.2 mph94%29.99 "HgN/A
Weather by CustomWeather, © 2015

See weather overviewHow to use our weather pages